weather.gov     
National Weather Service

Regional Weather Roundup
NWS Homepage
This page is being discontinued on March 12, 2014.
The same data is available at this site. Please update your bookmarks.
Thank you, and we apologize for the inconvenience.
Please send an email to SR-SRH.Webmaster@noaa.gov with any concerns.


Current Version
Previous Version:    01  02  03  04  05  06  07  08  09  10  11  12  13  14  15  16  17  18  19  20  21  22  23  24  25  26  27  28  29  30  
   31  32  33  34  35  36  37  38  39  40  41  42  43  44  45  46  47  48  49  50  51  52  
[Printable]
488
ASUS43 KFGF 161310
RWRFGF
PRAIRIE TO PINES  WEATHER ROUNDUP
NATIONAL WEATHER SERVICE EASTERN NORTH DAKOTA/GRAND FORKS ND
800 AM CDT WED APR 16 2014

 **SATELLITE DATA USED TO AUGMENT SKY COVER AT AUTOMATED STATIONS**
 *****  WEATHER ACROSS EASTERN NORTH DAKOTA  *****

CITY           SKY/WX    TMP DP  RH WIND       PRES   REMARKS
GRAND FORKS    CLOUDY    28  12  51 E14       30.05R WCI  17
GRAND FRKS AFB CLOUDY    28  12  51 E13       30.09R WCI  17
GRAND FRKS NWS   N/A     28 N/A N/A NE16        N/A  WCI  17
DEVILS LAKE    CLOUDY    25  10  54 E14       30.05R WCI  13
FARGO          CLOUDY    28  22  78 NE14      30.00R WCI  17
WAHPETON ARPT  CLOUDY    28  23  80 E17G28    29.94R WCI  16
$$

 ***** WEATHER ACROSS CENTRAL AND WESTERN NORTH DAKOTA  *****

CITY           SKY/WX    TMP DP  RH WIND       PRES   REMARKS
BISMARCK       CLOUDY    28  22  78 E18G28    29.94R WCI  15
MINOT          LGT SNOW  22  18  85 NE13      30.04R FOG     WCI  10
JAMESTOWN      CLOUDY    26  23  88 NE20G29   29.96R WCI  12
MINOT AFB      LGT SNOW  22  20  93 NE13      30.05R WCI  10
GARRISON         N/A     24  20  84 E14G24    29.98R WCI  12
WILLISTON      CLOUDY    25  20  81 E17       30.01R WCI  12
DICKINSON      PTCLDY    22  18  85 NE13      29.89R WCI  10
HETTINGER      MOCLDY    24  16  71 N14       29.86R WCI  12
$$

 *****  OTHER AIRPORT OBSERVATIONS IN OUR AREA  *****

CITY           SKY/WX    TMP DP  RH WIND       PRES   REMARKS
WALHALLA         N/A     25  10  54 NE8       30.16R WCI  16
GRAFTON AIRPOR PTSUNNY   27  10  50 E13       30.12R WCI  16
VALLEY CITY AR NOT AVBL
CANDO          CLOUDY    23  14  68 NE9       30.09R WCI  13
CAVALIER APRT  PTSUNNY   25  14  63 NE12      30.15R WCI  14
GWINNER        CLOUDY    30  28  93 NE22G30   29.91R WCI  17
SHEYENNE NWR     N/A     29  29  99 E14       29.95S WCI  18
ROLLA          CLOUDY    19  14  79 NE14      30.10R WCI   6
 ***** THE ABOVE OBSERVATIONS ARE NON NWS ARE NOT QUALITY
       CONTROLLED AND MAY MIS-REPORT RAIN FOR SNOW...
$$

  *****  WEATHER ACROSS NORTHERN MINNESOTA  *****

CITY           SKY/WX    TMP DP  RH WIND       PRES   REMARKS
FLAG ISLAND    MOSUNNY   18   1  49 E6        30.19R WCI   9
WARROAD        PTSUNNY   18  10  73 NE7       30.18R WCI   8
ROSEAU         PTSUNNY   23  10  58 E10       30.17R WCI  12
HALLOCK        CLOUDY    25  10  54 E14       30.15R WCI  13
THF RVR FALLS  CLOUDY    27   7  43 NE15      30.09R WCI  15
BAUDETTE       CLOUDY    20   7  57 E8        30.17R WCI  10
WASKISH        CLOUDY    21   7  53 E8        30.13R WCI  12
CROOKSTON      PTSUNNY   28  10  47 E14       30.09R WCI  17
$$
  *****  WEATHER ACROSS CENTRAL AND WEST MINNESOTA  *****

CITY           SKY/WX    TMP DP  RH WIND       PRES   REMARKS
FOSSTON        CLOUDY    27   7  43 E12       30.05S WCI  16
BEMIDJI        CLOUDY    26   6  42 E10       30.06R WCI  16
PARK RAPIDS    LGT SNOW  24  21  88 E12       30.02R VSB 1   WCI  13
ELBOW LAKE     LGT SNOW  28  24  88 E18G29    29.90R WCI  15
WADENA         LGT SNOW  25  21  86 E14G23    29.98R WCI  13
DETROIT LAKES  CLOUDY    28  21  74 E7G17     29.99R WCI  21
MOORHEAD       NOT AVBL
FERGUS FALLS   CLOUDY    27  19  74 E14G25    29.93R WCI  15
MORRIS MN      CLOUDY    30  23  74 E25G31    29.85S WCI  16
STAPLES        LGT SNOW  25  21  86 E10G20    30.00R WCI  15
$$
  *****  WEATHER ELSEWHERE ACROSS MINNESOTA  *****

CITY           SKY/WX    TMP DP  RH WIND       PRES   REMARKS
DULUTH         CLOUDY    26  10  50 E12       30.11R WCI  16
INTRNTL FALLS  PTSUNNY   20   4  50 E7        30.18R WCI  11
ELY            CLOUDY    18   7  62 CALM      30.16R
CLOQUET        CLOUDY    27  10  50 E8        30.11R WCI  18
WHEATON        LGT SNOW  30  27  86 E17       29.91R WCI  18
BRAINERD       LGT SNOW  30  22  72 E12G20    30.03S VSB 3/4 WCI  20
HIBBING        CLOUDY    25   9  50 E9        30.12R WCI  15
ALEXANDRIA     LGT SNOW  28  23  80 E17G30    29.92R WCI  16
SAINT CLOUD    CLOUDY    30  22  72 E15G24    29.96S WCI  19
MINNEAPOLIS    CLOUDY    34  17  50 E17G26    29.97R WCI  23
$$

  *****  WEATHER ACROSS SOUTH DAKOTA  *****

CITY           SKY/WX    TMP DP  RH WIND       PRES   REMARKS
SIOUX FALLS    CLOUDY    46  27  47 S12       29.61S
BROOKINGS      NOT AVBL
WATERTOWN      FLURRIES  30  20  66 E25G32    29.73S WCI  16
HURON          CLOUDY    33  26  75 NE22G28   29.64R WCI  21
SISSETON         N/A     28  25  88 E16       29.86R WCI  16
ABERDEEN       LGT SNOW  27  24  89 NE20G26   29.81R VSB 1   WCI  13
MITCHELL       LGT RAIN  42  34  73 NE14      29.55R
PIERRE         FRZ RAIN  31  28  89 NE14      29.72R WCI  21
MOBRIDGE       CLOUDY    29  20  69 NE17G23   29.80R WCI  17
RAPID CITY     CLOUDY    41  35  79 NW18      29.74R
$$

  *****  SOME WEATHER IN NEARBY STATES *****

CITY           SKY/WX    TMP DP  RH WIND       PRES   REMARKS
GLASGOW MT     MOCLDY    26  22  84 CALM      30.01R
GREAT FALLS MT CLOUDY    31  31 100 E7        29.94R WCI  24
CHEYENNE WY    CLEAR     33  25  72 W10       29.84R WCI  25
SCOTTSBLUFF NE MOCLDY    41  31  67 NW22G30   29.82R
OMAHA NE       CLOUDY    47  28  47 S25G33    29.75S
DES MOINES IA  CLOUDY    45  26  47 S17G26    29.91S
DAVENPORT IA   PTSUNNY   36  24  62 SE16      30.16R
CHICAGO IL     MOSUNNY   34  21  59 S12       30.29R
EAU CLAIRE WI  CLOUDY    30  23  75 E15G22    30.08S WCI  19
LA CROSSE WI   CLOUDY    37  18  46 SE15      30.08R
$$

  *****  SOME NATIONAL WEATHER *****

CITY           SKY/WX    TMP DP  RH WIND       PRES   REMARKS
LA GUARDIA NY  MOSUNNY   34  15  46 N18G35    30.27R WCI  23
RALEIGH NC     SUNNY     37  21  52 NE9G22    30.34R
ATLANTA GA     SUNNY     40  28  62 E12       30.25R
NEW ORLEANS LA MOSUNNY   49  31  49 E12G18    30.23R
OKLAHOMA CITY  PTSUNNY   47  28  47 S24G33    29.96S
ALBUQUERQUE NM PTCLDY    40   8  26 SE8       29.90R
SALT LAKE CITY MOCLDY    42  22  44 NW3       29.98R
LOS ANGELES CA CLOUDY    59  51  75 E3        29.85S
BOISE ID       MOCLDY    35  22  58 SE3       30.03S
SEATTLE WA     LGT RAIN  48  45  89 S12       30.07S
$$

*** WEATHER ACROSS MANITOBA...SASKATCHEWAN AND ONTARIO ***
                ***ONTARIO***

CITY           SKY/WX    TMP DP  RH WIND       PRES   REMARKS
GERALDTON      SUNNY     14   0  52 W9        30.19R WCI   2
THUNDER BAY    PTSUNNY   16   7  67 SW3       30.28R
SIOUX LOOKOUT  PTSUNNY    5   1  85 CALM      30.23R
TORONTO        SUNNY     25  10  54 NW5       30.43R WCI  19
BIG TROUT LK   SUNNY     -4  -9  77 NW10      30.23R WCI -21
PICKLE LAKE    MOSUNNY    1  -8  66 NW3       30.22R
DRYDEN         SUNNY      9   1  72 NE3       30.20R
KENORA         PTSUNNY   12   0  57 NE5       30.20R WCI   4
$$
                *** MANITOBA***

CITY           SKY/WX    TMP DP  RH WIND       PRES   REMARKS
BRANDON        PTSUNNY   18   7  62 NE18      30.21R WCI   2
DAUPHIN        SUNNY     14   7  73 NE7       30.29R WCI   4
ISLAND LAKE    MOSUNNY    3  -4  72 N3        30.34R
PILOT MOUND      N/A     21  10  63 NE14        N/A  WCI   8
THE PAS        SUNNY      3  -6  66 NE6       30.38R WCI  -8
THOMPSON       MOSUNNY   -4  -9  77 N7        30.41R WCI -18
WINNIPEG       MOSUNNY   18   7  62 NE8       30.24R WCI   7
LYNN LAKE      SUNNY     -6  -9  84 NW7       30.42R WCI -20
CHURCHILL      CRYSTALS  -4  -9  77 NW17      30.31S WCI -26
GILLAM         PTSUNNY   -6 -11  77 W12       30.35R WCI -24
$$
                ***SASKATCHEWAN***

CITY           SKY/WX    TMP DP  RH WIND       PRES   REMARKS
ESTEVAN        LGT SNOW  19  18  93 E14       30.09R DRFTSNOWWCI   6
KINDERSLEY     CLOUDY    21  19  93 E16       30.07R WCI   7
LLOYDMINSTER   PTCLDY    19  18  93 SE6       30.13R WCI  11
PRINCE ALBERT  PTCLDY    12   3  67 E8        30.26R WCI   1
REGINA         LGT SNOW  21  18  86 E14       30.13R DRFTSNOWWCI   8
YORKTON        CLOUDY    16   7  67 E10       30.21R WCI   3
N. BATTLEFORD  CLEAR     18  14  86 E9        30.19R WCI   6
LA RONGE       CLEAR      5  -2  72 NE9       30.36R WCI  -9
SASKATOON      FLURRIES  18  16  93 NE10      30.19R WCI   6
SWIFT CURRENT  FLURRIES  25  23  93 E8        30.01R WCI  16
$$
NOTE: THESE ARE AUTOMATED STATIONS WITH LIMITED QUALITY CONTROL
      "FAIR" INDICATES FEW OR NO CLOUDS BELOW 12,000 FEET WITH NO
      SIGNIFICANT WEATHER AND/OR OBSTRUCTIONS TO VISIBILITY.
      SKY/WX - SKY CONDITION AND SIGNIFICANT WEATHER.
      TMP - AIR TEMPERATURE.    DP   - DEWPOINT TEMPERATURE.
      RH  - RELATIVE HUMIDITY.  PRES - PRESSURE.
      HX  - HEAT INDEX.         WCI  - WIND CHILL INDEX.
$




U.S. Dept. of Commerce
NOAA National Weather Service
1325 East West Highway
Silver Spring, MD 20910
E-mail: w-nws.webmaster@noaa.gov
Page last modified: May 16, 2007
NATIONAL WEATHER SERVICE: for Safety, for Work, for Fun - FOR LIFE